Location: ??????
(56.0120°N, 39.1740°E)
Time: 20:50:04
(UTC+00:00)

IDEFIX/ARIANE 42P - Pass Details

Date: 14 April 2026
Orbit: 780 x 797 km, 98.6° (Epoch: 11 May)

Event Time Altitude Azimuth Distance (km) Brightness Sun altitude
Rises 22:37:46 0° 19° (NNE) 3,280 7.3 -22.5°
Reaches altitude 10° 22:40:14 10° 27° (NNE) 2,348 6.1 -22.4°
Maximum altitude 22:45:07 41° 97° (E) 1,131 3.4 -22.2°
Enters shadow 22:47:03 29° 143° (SE) 1,394 3.5 -22.1°
